Regional Weather Roundup
Issued by NWS

Home | Current Version | Previous Version | Graphics & Text | Print | Product List | Glossary On
Versions: 1 2 3 4 5 6 7 8 9 10 11 12 13 14 15 16 17 18 19 20 21 22 23 24 25 26 27 28 29 30 31 32 33 34 35 36 37 38 39 40 41 42 43 44 45 46 47 48 49 50
537
ASUS43 KFSD 190702
RWRSD

WEATHER ROUNDUP FOR SOUTH DAKOTA
NATIONAL WEATHER SERVICE SIOUX FALLS SD
100 AM CST THU JAN 19 2017

NOTE: "FAIR" INDICATES FEW OR NO CLOUDS BELOW 12,000 FEET WITH NO
SIGNIFICANT WEATHER AND/OR OBSTRUCTIONS TO VISIBILITY.


SDZ001>005-009-010-012>017-190800-
NORTHWEST AND NORTH CENTRAL SOUTH DAKOTA

CITY           SKY/WX    TMP DP  RH WIND       PRES   REMARKS
BUFFALO          N/A     34  21  59 W6        29.48F WCI  29
FAITH            N/A     23  19  85 S7        29.56F WCI  15
MOBRIDGE       CLOUDY    16  12  84 CALM      29.57F
$$

SDZ012>016-024>037-041>051-057-063-072>074-190800-
SOUTHWEST AND SOUTH CENTRAL SOUTH DAKOTA

CITY           SKY/WX    TMP DP  RH WIND       PRES   REMARKS
RAPID CTY ARPT CLOUDY    33  23  66 NW13      29.56F WCI  24
PIERRE         CLOUDY    17  16  95 CALM      29.59S
CUSTER         CLOUDY    35  16  45 W8        29.60F WCI  29
ELLSWORTH AFB  CLOUDY    36  25  64 N18       29.56F
PHILIP         CLOUDY    15  13  91 W8        29.58F WCI   4
PINE RIDGE     CLOUDY    27  22  81 W8        29.61R WCI  19
SPEARFISH      FAIR      32  23  69 S7        29.59F WCI  26
WINNER         FAIR      36  28  73 S13       29.63F
$$

SDZ004>011-016>023-039-040-190800-
NORTHEAST SOUTH DAKOTA

CITY           SKY/WX    TMP DP  RH WIND       PRES   REMARKS
ABERDEEN       FOG       14  11  87 CALM      29.63F VSB 1/4
WATERTOWN      FOG       26  26 100 S10       29.66F VSB 1   WCI  16
BROOKINGS      CLOUDY    33  32  96 S13       29.71F WCI  24
SISSETON         N/A     26  25  96 SE7       29.65F WCI  18
$$

SDZ017-020-022-023-036>040-048>070-190800-
SOUTHEAST SOUTH DAKOTA

CITY           SKY/WX    TMP DP  RH WIND       PRES   REMARKS
SIOUX FALLS    CLEAR     37  36  96 S12       29.76F
HURON          CLOUDY    31  30  96 S9        29.66F WCI  23
CHAMBERLAIN    CLOUDY    35  30  81 SW7       29.64S WCI  30
MITCHELL       CLOUDY    32  31  96 SE8       29.70F WCI  25
YANKTON        CLEAR     37  34  87 S7        29.75F
$$

ABBREVIATIONS USED IN REMARKS
   TC - TEMPERATURE IN CELSIUS
  WCI - WIND CHILL INDEX
   HX - HEAT INDEX
  VSB - VISIBILITY





USA.gov is the U.S. government's official web portal to all federal, state and local government web resources and services.